Year,Month,Day,Hour,Minute,Value (Times are PST for temperature in C)
2013,09,26,00,00,10.30
2013,09,26,00,01,10.20
2013,09,26,00,02,10.20
2013,09,26,00,03,10.10
2013,09,26,00,04,10.10
2013,09,26,00,05,10.10
2013,09,26,00,06,10.00
2013,09,26,00,07,9.90
2013,09,26,00,08,9.90
2013,09,26,00,09,9.90
2013,09,26,00,10,9.90
2013,09,26,00,11,9.80
2013,09,26,00,12,9.80
2013,09,26,00,13,9.80
2013,09,26,00,14,9.70
2013,09,26,00,15,9.70
2013,09,26,00,16,9.70
2013,09,26,00,17,9.70
2013,09,26,00,18,9.70
2013,09,26,00,19,9.70
2013,09,26,00,20,9.70
2013,09,26,00,21,9.70
2013,09,26,00,22,9.70
2013,09,26,00,23,9.70
2013,09,26,00,24,9.60
2013,09,26,00,25,9.60
2013,09,26,00,26,9.50
2013,09,26,00,27,9.50
2013,09,26,00,28,9.40
2013,09,26,00,29,9.40
2013,09,26,00,30,9.40
2013,09,26,00,31,9.30
2013,09,26,00,32,9.30
2013,09,26,00,33,9.30
2013,09,26,00,34,9.20
2013,09,26,00,35,9.20
2013,09,26,00,36,9.20
2013,09,26,00,37,9.20
2013,09,26,00,38,9.20
2013,09,26,00,39,9.20
2013,09,26,00,40,9.20
2013,09,26,00,41,9.20
2013,09,26,00,42,9.20
2013,09,26,00,43,9.20
2013,09,26,00,44,9.20
2013,09,26,00,45,9.20
2013,09,26,00,46,9.20
2013,09,26,00,47,9.10
2013,09,26,00,48,9.10
2013,09,26,00,49,9.10
2013,09,26,00,50,9.00
2013,09,26,00,51,9.00
2013,09,26,00,52,9.00
2013,09,26,00,53,8.90
2013,09,26,00,54,8.90
2013,09,26,00,55,8.80
2013,09,26,00,56,8.70
2013,09,26,00,57,8.70
2013,09,26,00,58,8.70
2013,09,26,00,59,8.70
2013,09,26,01,00,8.70
2013,09,26,01,01,8.70
2013,09,26,01,02,8.70
2013,09,26,01,03,8.70
2013,09,26,01,04,8.80
2013,09,26,01,05,8.80
2013,09,26,01,06,8.80
2013,09,26,01,07,8.90
2013,09,26,01,08,8.90
2013,09,26,01,09,8.90
2013,09,26,01,10,8.90
2013,09,26,01,11,8.80
2013,09,26,01,12,8.80
2013,09,26,01,13,8.80
2013,09,26,01,14,8.90
2013,09,26,01,15,8.90
2013,09,26,01,16,8.80
2013,09,26,01,17,8.80
2013,09,26,01,18,8.80
2013,09,26,01,19,8.80
2013,09,26,01,20,8.70
2013,09,26,01,21,8.70
2013,09,26,01,22,8.70
2013,09,26,01,23,8.70
2013,09,26,01,24,8.70
2013,09,26,01,25,8.70
2013,09,26,01,26,8.70
2013,09,26,01,27,8.70
2013,09,26,01,28,8.70
2013,09,26,01,29,8.70
2013,09,26,01,30,8.70
2013,09,26,01,31,8.70
2013,09,26,01,32,8.70
2013,09,26,01,33,8.70
2013,09,26,01,34,8.70
2013,09,26,01,35,8.70
2013,09,26,01,36,8.70
2013,09,26,01,37,8.70
2013,09,26,01,38,8.70
2013,09,26,01,39,8.70
2013,09,26,01,40,8.70
2013,09,26,01,41,8.70
2013,09,26,01,42,8.70
2013,09,26,01,43,8.70
2013,09,26,01,44,8.80
2013,09,26,01,45,8.80
2013,09,26,01,46,8.80
2013,09,26,01,47,8.80
2013,09,26,01,48,8.80
2013,09,26,01,49,8.80
2013,09,26,01,50,8.80
2013,09,26,01,51,8.80
2013,09,26,01,52,8.80
2013,09,26,01,53,8.70
2013,09,26,01,54,8.70
2013,09,26,01,55,8.70
2013,09,26,01,56,8.60
2013,09,26,01,57,8.60
2013,09,26,01,58,8.60
2013,09,26,01,59,8.60
2013,09,26,02,00,8.50
2013,09,26,02,01,8.50
2013,09,26,02,02,8.50
2013,09,26,02,03,8.50
2013,09,26,02,04,8.50
2013,09,26,02,05,8.50
2013,09,26,02,06,8.60
2013,09,26,02,07,8.50
2013,09,26,02,08,8.50
2013,09,26,02,09,8.50
2013,09,26,02,10,8.50
2013,09,26,02,11,8.50
2013,09,26,02,12,8.50
2013,09,26,02,13,8.50
2013,09,26,02,14,8.50
2013,09,26,02,15,8.50
2013,09,26,02,16,8.50
2013,09,26,02,17,8.50
2013,09,26,02,18,8.50
2013,09,26,02,19,8.50
2013,09,26,02,20,8.50
2013,09,26,02,21,8.50
2013,09,26,02,22,8.50
2013,09,26,02,23,8.50
2013,09,26,02,24,8.50
2013,09,26,02,25,8.50
2013,09,26,02,26,8.50
2013,09,26,02,27,8.50
2013,09,26,02,28,8.40
2013,09,26,02,29,8.40
2013,09,26,02,30,8.40
2013,09,26,02,31,8.40
2013,09,26,02,32,8.40
2013,09,26,02,33,8.40
2013,09,26,02,34,8.40
2013,09,26,02,35,8.40
2013,09,26,02,36,8.40
2013,09,26,02,37,8.40
2013,09,26,02,38,8.40
2013,09,26,02,39,8.30
2013,09,26,02,40,8.30
2013,09,26,02,41,8.30
2013,09,26,02,42,8.20
2013,09,26,02,43,8.20
2013,09,26,02,44,8.20
2013,09,26,02,45,8.20
2013,09,26,02,46,8.20
2013,09,26,02,47,8.20
2013,09,26,02,48,8.20
2013,09,26,02,49,8.20
2013,09,26,02,50,8.20
2013,09,26,02,51,8.20
2013,09,26,02,52,8.30
2013,09,26,02,53,8.30
2013,09,26,02,54,8.30
2013,09,26,02,55,8.30
2013,09,26,02,56,8.30
2013,09,26,02,57,8.30
2013,09,26,02,58,8.30
2013,09,26,02,59,8.20
2013,09,26,03,00,8.30
2013,09,26,03,01,8.30
2013,09,26,03,02,8.30
2013,09,26,03,03,8.30
2013,09,26,03,04,8.30
2013,09,26,03,05,8.30
2013,09,26,03,06,8.30
2013,09,26,03,07,8.30
2013,09,26,03,08,8.20
2013,09,26,03,09,8.20
2013,09,26,03,10,8.20
2013,09,26,03,11,8.20
2013,09,26,03,12,8.10
2013,09,26,03,13,8.10
2013,09,26,03,14,8.00
2013,09,26,03,15,8.00
2013,09,26,03,16,7.90
2013,09,26,03,17,7.90
2013,09,26,03,18,7.90
2013,09,26,03,19,7.90
2013,09,26,03,20,7.90
2013,09,26,03,21,7.90
2013,09,26,03,22,7.90
2013,09,26,03,23,7.90
2013,09,26,03,24,7.90
2013,09,26,03,25,8.00
2013,09,26,03,26,8.00
2013,09,26,03,27,8.00
2013,09,26,03,28,8.00
2013,09,26,03,29,8.00
2013,09,26,03,30,8.00
2013,09,26,03,31,8.00
2013,09,26,03,32,8.10
2013,09,26,03,33,8.10
2013,09,26,03,34,8.10
2013,09,26,03,35,8.20
2013,09,26,03,36,8.20
2013,09,26,03,37,8.20
2013,09,26,03,38,8.20
2013,09,26,03,39,8.20
2013,09,26,03,40,8.20
2013,09,26,03,41,8.20
2013,09,26,03,42,8.20
2013,09,26,03,43,8.20
2013,09,26,03,44,8.20
2013,09,26,03,45,8.20
2013,09,26,03,46,8.20
2013,09,26,03,47,8.20
2013,09,26,03,48,8.20
2013,09,26,03,49,8.20
2013,09,26,03,50,8.10
2013,09,26,03,51,8.10
2013,09,26,03,52,8.10
2013,09,26,03,53,8.10
2013,09,26,03,54,8.00
2013,09,26,03,55,8.00
2013,09,26,03,56,8.00
2013,09,26,03,57,8.00
2013,09,26,03,58,8.00
2013,09,26,03,59,8.00
2013,09,26,04,00,8.00
2013,09,26,04,01,8.00
2013,09,26,04,02,8.00
2013,09,26,04,03,8.00
2013,09,26,04,04,7.90
2013,09,26,04,05,7.90
2013,09,26,04,06,7.90
2013,09,26,04,07,7.90
2013,09,26,04,08,7.90
2013,09,26,04,09,7.90
2013,09,26,04,10,7.90
2013,09,26,04,11,7.90
2013,09,26,04,12,7.90
2013,09,26,04,13,7.90
2013,09,26,04,14,7.90
2013,09,26,04,15,7.90
2013,09,26,04,16,7.90
2013,09,26,04,17,7.80
2013,09,26,04,18,7.80
2013,09,26,04,19,7.80
2013,09,26,04,20,7.80
2013,09,26,04,21,7.80
2013,09,26,04,22,7.80
2013,09,26,04,23,7.80
2013,09,26,04,24,7.80
2013,09,26,04,25,7.80
2013,09,26,04,26,7.80
2013,09,26,04,27,7.80
2013,09,26,04,28,7.80
2013,09,26,04,29,7.80
2013,09,26,04,30,7.70
2013,09,26,04,31,7.70
2013,09,26,04,32,7.70
2013,09,26,04,33,7.70
2013,09,26,04,34,7.70
2013,09,26,04,35,7.70
2013,09,26,04,36,7.70
2013,09,26,04,37,7.70
2013,09,26,04,38,7.70
2013,09,26,04,39,7.70
2013,09,26,04,40,7.70
2013,09,26,04,41,7.70
2013,09,26,04,42,7.80
2013,09,26,04,43,7.80
2013,09,26,04,44,7.80
2013,09,26,04,45,7.80
2013,09,26,04,46,7.80
2013,09,26,04,47,7.80
2013,09,26,04,48,7.70
2013,09,26,04,49,7.70
2013,09,26,04,50,7.60
2013,09,26,04,51,7.60
2013,09,26,04,52,7.50
2013,09,26,04,53,7.50
2013,09,26,04,54,7.40
2013,09,26,04,55,7.30
2013,09,26,04,56,7.30
2013,09,26,04,57,7.20
2013,09,26,04,58,7.20
2013,09,26,04,59,7.20
2013,09,26,05,00,7.20
2013,09,26,05,01,7.20
2013,09,26,05,02,7.20
2013,09,26,05,03,7.20
2013,09,26,05,04,7.20
2013,09,26,05,05,7.20
2013,09,26,05,06,7.30
2013,09,26,05,07,7.30
2013,09,26,05,08,7.30
2013,09,26,05,09,7.30
2013,09,26,05,10,7.30
2013,09,26,05,11,7.30
2013,09,26,05,12,7.30
2013,09,26,05,13,7.30
2013,09,26,05,14,7.30
2013,09,26,05,15,7.30
2013,09,26,05,16,7.30
2013,09,26,05,17,7.30
2013,09,26,05,18,7.30
2013,09,26,05,19,7.30
2013,09,26,05,20,7.30
2013,09,26,05,21,7.30
2013,09,26,05,22,7.30
2013,09,26,05,23,7.30
2013,09,26,05,24,7.30
2013,09,26,05,25,7.30
2013,09,26,05,26,7.30
2013,09,26,05,27,7.30
2013,09,26,05,28,7.30
2013,09,26,05,29,7.20
2013,09,26,05,30,7.20
2013,09,26,05,31,7.20
2013,09,26,05,32,7.20
2013,09,26,05,33,7.10
2013,09,26,05,34,7.10
2013,09,26,05,35,7.10
2013,09,26,05,36,7.10
2013,09,26,05,37,7.10
2013,09,26,05,38,7.10
2013,09,26,05,39,7.10
2013,09,26,05,40,7.00
2013,09,26,05,41,7.00
2013,09,26,05,42,7.00
2013,09,26,05,43,7.00
2013,09,26,05,44,7.00
2013,09,26,05,45,7.00
2013,09,26,05,46,7.00
2013,09,26,05,47,7.00
2013,09,26,05,48,7.00
2013,09,26,05,49,7.00
2013,09,26,05,50,7.00
2013,09,26,05,51,7.00
2013,09,26,05,52,7.00
2013,09,26,05,53,7.00
2013,09,26,05,54,7.00
2013,09,26,05,55,7.00
2013,09,26,05,56,7.00
2013,09,26,05,57,7.10
2013,09,26,05,58,7.10
2013,09,26,05,59,7.10
2013,09,26,06,00,7.10
2013,09,26,06,01,7.20
2013,09,26,06,02,7.20
2013,09,26,06,03,7.20
2013,09,26,06,04,7.20
2013,09,26,06,05,7.20
2013,09,26,06,06,7.20
2013,09,26,06,07,7.20
2013,09,26,06,08,7.20
2013,09,26,06,09,7.20
2013,09,26,06,10,7.20
2013,09,26,06,11,7.20
2013,09,26,06,12,7.20
2013,09,26,06,13,7.20
2013,09,26,06,14,7.20
2013,09,26,06,15,7.20
2013,09,26,06,16,7.10
2013,09,26,06,17,7.10
2013,09,26,06,18,7.10
2013,09,26,06,19,7.00
2013,09,26,06,20,7.00
2013,09,26,06,21,7.00
2013,09,26,06,22,7.00
2013,09,26,06,23,6.90
2013,09,26,06,24,6.90
2013,09,26,06,25,6.90
2013,09,26,06,26,6.90
2013,09,26,06,27,6.90
2013,09,26,06,28,7.00
2013,09,26,06,29,7.00
2013,09,26,06,30,7.00
2013,09,26,06,31,6.90
2013,09,26,06,32,6.90
2013,09,26,06,33,6.90
2013,09,26,06,34,6.90
2013,09,26,06,35,6.90
2013,09,26,06,36,6.90
2013,09,26,06,37,6.90
2013,09,26,06,38,6.90
2013,09,26,06,39,6.90
2013,09,26,06,40,6.90
2013,09,26,06,41,6.90
2013,09,26,06,42,6.90
2013,09,26,06,43,6.90
2013,09,26,06,44,6.90
2013,09,26,06,45,6.90
2013,09,26,06,46,6.90
2013,09,26,06,47,6.90
2013,09,26,06,48,6.90
2013,09,26,06,49,6.90
2013,09,26,06,50,6.90
2013,09,26,06,51,6.90
2013,09,26,06,52,6.90
2013,09,26,06,53,6.90
2013,09,26,06,54,6.90
2013,09,26,06,55,6.90
2013,09,26,06,56,6.80
2013,09,26,06,57,6.80
2013,09,26,06,58,6.80
2013,09,26,06,59,6.80
2013,09,26,07,00,6.80
2013,09,26,07,01,6.80
2013,09,26,07,02,6.70
2013,09,26,07,03,6.70
2013,09,26,07,04,6.70
2013,09,26,07,05,6.70
2013,09,26,07,06,6.60
2013,09,26,07,07,6.60
2013,09,26,07,08,6.60
2013,09,26,07,09,6.60
2013,09,26,07,10,6.60
2013,09,26,07,11,6.60
2013,09,26,07,12,6.60
2013,09,26,07,13,6.60
2013,09,26,07,14,6.60
2013,09,26,07,15,6.60
2013,09,26,07,16,6.60
2013,09,26,07,17,6.60
2013,09,26,07,18,6.60
2013,09,26,07,19,6.60
2013,09,26,07,20,6.60
2013,09,26,07,21,6.60
2013,09,26,07,22,6.60
2013,09,26,07,23,6.60
2013,09,26,07,24,6.60
2013,09,26,07,25,6.70
2013,09,26,07,26,6.80
2013,09,26,07,27,6.80
2013,09,26,07,28,6.80
2013,09,26,07,29,6.90
2013,09,26,07,30,6.90
2013,09,26,07,31,6.90
2013,09,26,07,32,6.90
2013,09,26,07,33,6.90
2013,09,26,07,34,6.90
2013,09,26,07,35,6.90
2013,09,26,07,36,6.90
2013,09,26,07,37,6.90
2013,09,26,07,38,6.90
2013,09,26,07,39,6.90
2013,09,26,07,40,6.90
2013,09,26,07,41,6.90
2013,09,26,07,42,7.00
2013,09,26,07,43,7.00
2013,09,26,07,44,7.10
2013,09,26,07,45,7.10
2013,09,26,07,46,7.20
2013,09,26,07,47,7.30
2013,09,26,07,48,7.30
2013,09,26,07,49,7.30
2013,09,26,07,50,7.30
2013,09,26,07,51,7.30
2013,09,26,07,52,7.30
2013,09,26,07,53,7.30
2013,09,26,07,54,7.30
2013,09,26,07,55,7.30
2013,09,26,07,56,7.40
2013,09,26,07,57,7.40
2013,09,26,07,58,7.40
2013,09,26,07,59,7.50
2013,09,26,08,00,7.50
2013,09,26,08,01,7.60
2013,09,26,08,02,7.60
2013,09,26,08,03,7.70
2013,09,26,08,04,7.70
2013,09,26,08,05,7.80
2013,09,26,08,06,7.80
2013,09,26,08,07,7.80
2013,09,26,08,08,7.80
2013,09,26,08,09,7.90
2013,09,26,08,10,7.90
2013,09,26,08,11,7.90
2013,09,26,08,12,7.90
2013,09,26,08,13,7.90
2013,09,26,08,14,7.90
2013,09,26,08,15,7.90
2013,09,26,08,16,7.90
2013,09,26,08,17,7.90
2013,09,26,08,18,8.00
2013,09,26,08,19,8.00
2013,09,26,08,20,8.00
2013,09,26,08,21,8.00
2013,09,26,08,22,8.10
2013,09,26,08,23,8.10
2013,09,26,08,24,8.20
2013,09,26,08,25,8.20
2013,09,26,08,26,8.20
2013,09,26,08,27,8.20
2013,09,26,08,28,8.20
2013,09,26,08,29,8.20
2013,09,26,08,30,8.30
2013,09,26,08,31,8.30
2013,09,26,08,32,8.30
2013,09,26,08,33,8.40
2013,09,26,08,34,8.40
2013,09,26,08,35,8.50
2013,09,26,08,36,8.50
2013,09,26,08,37,8.50
2013,09,26,08,38,8.50
2013,09,26,08,39,8.60
2013,09,26,08,40,8.60
2013,09,26,08,41,8.60
2013,09,26,08,42,8.70
2013,09,26,08,43,8.70
2013,09,26,08,44,8.60
2013,09,26,08,45,8.60
2013,09,26,08,46,8.60
2013,09,26,08,47,8.60
2013,09,26,08,48,8.60
2013,09,26,08,49,8.60
2013,09,26,08,50,8.60
2013,09,26,08,51,8.60
2013,09,26,08,52,8.50
2013,09,26,08,53,8.50
2013,09,26,08,54,8.50
2013,09,26,08,55,8.50
2013,09,26,08,56,8.50
2013,09,26,08,57,8.50
2013,09,26,08,58,8.50
2013,09,26,08,59,8.50
2013,09,26,09,00,8.50
2013,09,26,09,01,8.50
2013,09,26,09,02,8.50
2013,09,26,09,03,8.50
2013,09,26,09,04,8.50
2013,09,26,09,05,8.50
2013,09,26,09,06,8.60
2013,09,26,09,07,8.60
2013,09,26,09,08,8.60
2013,09,26,09,09,8.70
2013,09,26,09,10,8.70
2013,09,26,09,11,8.80
2013,09,26,09,12,8.80
2013,09,26,09,13,8.90
2013,09,26,09,14,8.90
2013,09,26,09,15,8.90
2013,09,26,09,16,9.00
2013,09,26,09,17,9.00
2013,09,26,09,18,9.10
2013,09,26,09,19,9.20
2013,09,26,09,20,9.20
2013,09,26,09,21,9.30
2013,09,26,09,22,9.40
2013,09,26,09,23,9.50
2013,09,26,09,24,9.60
2013,09,26,09,25,9.70
2013,09,26,09,26,9.70
2013,09,26,09,27,9.80
2013,09,26,09,28,9.90
2013,09,26,09,29,10.00
2013,09,26,09,30,10.10
2013,09,26,09,31,10.20
2013,09,26,09,32,10.30
2013,09,26,09,33,10.40
2013,09,26,09,34,10.40
2013,09,26,09,35,10.40
2013,09,26,09,36,10.40
2013,09,26,09,37,10.40
2013,09,26,09,38,10.40
2013,09,26,09,39,10.50
2013,09,26,09,40,10.60
2013,09,26,09,41,10.60
2013,09,26,09,42,10.70
2013,09,26,09,43,10.80
2013,09,26,09,44,10.90
2013,09,26,09,45,10.90
2013,09,26,09,46,10.90
2013,09,26,09,47,11.10
2013,09,26,09,48,11.10
2013,09,26,09,49,11.20
2013,09,26,09,50,11.40
2013,09,26,09,51,11.50
2013,09,26,09,52,11.60
2013,09,26,09,53,11.70
2013,09,26,09,54,11.80
2013,09,26,09,55,11.80
2013,09,26,09,56,11.90
2013,09,26,09,57,11.90
2013,09,26,09,58,11.90
2013,09,26,09,59,12.00
2013,09,26,10,00,12.10
2013,09,26,10,01,12.10
2013,09,26,10,02,12.20
2013,09,26,10,03,12.30
2013,09,26,10,04,12.30
2013,09,26,10,05,12.30
2013,09,26,10,06,12.30
2013,09,26,10,07,12.30
2013,09,26,10,08,12.30
2013,09,26,10,09,12.40
2013,09,26,10,10,12.50
2013,09,26,10,11,12.60
2013,09,26,10,12,12.70
2013,09,26,10,13,12.70
2013,09,26,10,14,12.70
2013,09,26,10,15,12.80
2013,09,26,10,16,12.80
2013,09,26,10,17,12.80
2013,09,26,10,18,12.90
2013,09,26,10,19,13.00
2013,09,26,10,20,13.00
2013,09,26,10,21,13.00
2013,09,26,10,22,13.00
2013,09,26,10,23,13.00
2013,09,26,10,24,13.00
2013,09,26,10,25,13.00
2013,09,26,10,26,13.00
2013,09,26,10,27,13.00
2013,09,26,10,28,12.90
2013,09,26,10,29,13.00
2013,09,26,10,30,13.00
2013,09,26,10,31,13.00
2013,09,26,10,32,13.00
2013,09,26,10,33,13.00
2013,09,26,10,34,12.90
2013,09,26,10,35,12.90
2013,09,26,10,36,12.90
2013,09,26,10,37,12.90
2013,09,26,10,38,13.00
2013,09,26,10,39,13.00
2013,09,26,10,40,13.00
2013,09,26,10,41,13.00
2013,09,26,10,42,13.00
2013,09,26,10,43,13.10
2013,09,26,10,44,13.10
2013,09,26,10,45,13.20
2013,09,26,10,46,13.20
2013,09,26,10,47,13.20
2013,09,26,10,48,13.30
2013,09,26,10,49,13.30
2013,09,26,10,50,13.30
2013,09,26,10,51,13.40
2013,09,26,10,52,13.40
2013,09,26,10,53,13.50
2013,09,26,10,54,13.50
2013,09,26,10,55,13.50
2013,09,26,10,56,13.50
2013,09,26,10,57,13.50
2013,09,26,10,58,13.50
2013,09,26,10,59,13.40
2013,09,26,11,00,13.40
2013,09,26,11,01,13.30
2013,09,26,11,02,13.30
2013,09,26,11,03,13.30
2013,09,26,11,04,13.40
2013,09,26,11,05,13.40
2013,09,26,11,06,13.40
2013,09,26,11,07,13.40
2013,09,26,11,08,13.40
2013,09,26,11,09,13.40
2013,09,26,11,10,13.40
2013,09,26,11,11,13.30
2013,09,26,11,12,13.30
2013,09,26,11,13,13.30
2013,09,26,11,14,13.40
2013,09,26,11,15,13.40
2013,09,26,11,16,13.50
2013,09,26,11,17,13.60
2013,09,26,11,18,13.60
2013,09,26,11,19,13.70
2013,09,26,11,20,13.70
2013,09,26,11,21,13.80
2013,09,26,11,22,13.90
2013,09,26,11,23,13.90
2013,09,26,11,24,14.00
2013,09,26,11,25,14.00
2013,09,26,11,26,14.00
2013,09,26,11,27,14.00
2013,09,26,11,28,14.00
2013,09,26,11,29,14.10
2013,09,26,11,30,14.20
2013,09,26,11,31,14.20
2013,09,26,11,32,14.20
2013,09,26,11,33,14.20
2013,09,26,11,34,14.20
2013,09,26,11,35,14.30
2013,09,26,11,36,14.40
2013,09,26,11,37,14.50
2013,09,26,11,38,14.50
2013,09,26,11,39,14.60
2013,09,26,11,40,14.60
2013,09,26,11,41,14.50
2013,09,26,11,42,14.50
2013,09,26,11,43,14.50
2013,09,26,11,44,14.60
2013,09,26,11,45,14.60
2013,09,26,11,46,14.70
2013,09,26,11,47,14.70
2013,09,26,11,48,14.70
2013,09,26,11,49,14.70
2013,09,26,11,50,14.60
2013,09,26,11,51,14.60
2013,09,26,11,52,14.60
2013,09,26,11,53,14.60
2013,09,26,11,54,14.60
2013,09,26,11,55,14.60
2013,09,26,11,56,14.60
2013,09,26,11,57,14.60
2013,09,26,11,58,14.60
2013,09,26,11,59,14.50
2013,09,26,12,00,14.60
2013,09,26,12,01,14.60
2013,09,26,12,02,14.60
2013,09,26,12,03,14.60
2013,09,26,12,04,14.60
2013,09,26,12,05,14.60
2013,09,26,12,06,14.60
2013,09,26,12,07,14.70
2013,09,26,12,08,14.80
2013,09,26,12,09,14.80
2013,09,26,12,10,14.70
2013,09,26,12,11,14.80
2013,09,26,12,12,14.80
2013,09,26,12,13,14.80
2013,09,26,12,14,14.80
2013,09,26,12,15,14.80
2013,09,26,12,16,14.80
2013,09,26,12,17,14.80
2013,09,26,12,18,14.80
2013,09,26,12,19,14.80
2013,09,26,12,20,14.80
2013,09,26,12,21,14.80
2013,09,26,12,22,14.80
2013,09,26,12,23,14.70
2013,09,26,12,24,14.80
2013,09,26,12,25,14.80
2013,09,26,12,26,14.80
2013,09,26,12,27,14.80
2013,09,26,12,28,14.80
2013,09,26,12,29,14.80
2013,09,26,12,30,14.80
2013,09,26,12,31,14.90
2013,09,26,12,32,14.90
2013,09,26,12,33,14.90
2013,09,26,12,34,14.90
2013,09,26,12,35,15.00
2013,09,26,12,36,15.10
2013,09,26,12,37,15.20
2013,09,26,12,38,15.20
2013,09,26,12,39,15.20
2013,09,26,12,40,15.10
2013,09,26,12,41,15.20
2013,09,26,12,42,15.20
2013,09,26,12,43,15.20
2013,09,26,12,44,15.20
2013,09,26,12,45,15.20
2013,09,26,12,46,15.20
2013,09,26,12,47,15.10
2013,09,26,12,48,15.00
2013,09,26,12,49,15.10
2013,09,26,12,50,15.10
2013,09,26,12,51,15.10
2013,09,26,12,52,15.00
2013,09,26,12,53,15.10
2013,09,26,12,54,15.20
2013,09,26,12,55,15.30
2013,09,26,12,56,15.30
2013,09,26,12,57,15.30
2013,09,26,12,58,15.30
2013,09,26,12,59,15.30
2013,09,26,13,00,15.20
2013,09,26,13,01,15.10
2013,09,26,13,02,15.10
2013,09,26,13,03,15.00
2013,09,26,13,04,14.90
2013,09,26,13,05,15.00
2013,09,26,13,06,15.00
2013,09,26,13,07,15.10
2013,09,26,13,08,15.20
2013,09,26,13,09,15.20
2013,09,26,13,10,15.30
2013,09,26,13,11,15.30
2013,09,26,13,12,15.20
2013,09,26,13,13,14.90
2013,09,26,13,14,14.70
2013,09,26,13,15,14.50
2013,09,26,13,16,14.30
2013,09,26,13,17,14.10
2013,09,26,13,18,14.00
2013,09,26,13,19,13.90
2013,09,26,13,20,13.80
2013,09,26,13,21,13.70
2013,09,26,13,22,13.60
2013,09,26,13,23,13.60
2013,09,26,13,24,13.50
2013,09,26,13,25,13.50
2013,09,26,13,26,13.40
2013,09,26,13,27,13.30
2013,09,26,13,28,13.30
2013,09,26,13,29,13.30
2013,09,26,13,30,13.30
2013,09,26,13,31,13.50
2013,09,26,13,32,13.50
2013,09,26,13,33,13.60
2013,09,26,13,34,13.70
2013,09,26,13,35,13.70
2013,09,26,13,36,13.70
2013,09,26,13,37,13.60
2013,09,26,13,38,13.60
2013,09,26,13,39,13.50
2013,09,26,13,40,13.60
2013,09,26,13,41,13.60
2013,09,26,13,42,13.60
2013,09,26,13,43,13.60
2013,09,26,13,44,13.60
2013,09,26,13,45,13.60
2013,09,26,13,46,13.60
2013,09,26,13,47,13.60
2013,09,26,13,48,13.60
2013,09,26,13,49,13.60
2013,09,26,13,50,13.60
2013,09,26,13,51,13.60
2013,09,26,13,52,13.60
2013,09,26,13,53,13.70
2013,09,26,13,54,13.60
2013,09,26,13,55,13.50
2013,09,26,13,56,13.40
2013,09,26,13,57,13.30
2013,09,26,13,58,13.20
2013,09,26,13,59,13.30
2013,09,26,14,00,13.40
2013,09,26,14,01,13.50
2013,09,26,14,02,13.50
2013,09,26,14,03,13.50
2013,09,26,14,04,13.40
2013,09,26,14,05,13.30
2013,09,26,14,06,13.20
2013,09,26,14,07,13.20
2013,09,26,14,08,13.20
2013,09,26,14,09,13.10
2013,09,26,14,10,13.10
2013,09,26,14,11,13.10
2013,09,26,14,12,13.10
2013,09,26,14,13,13.00
2013,09,26,14,14,13.00
2013,09,26,14,15,12.90
2013,09,26,14,16,12.80
2013,09,26,14,17,12.80
2013,09,26,14,18,12.80
2013,09,26,14,19,12.80
2013,09,26,14,20,12.80
2013,09,26,14,21,12.80
2013,09,26,14,22,12.80
2013,09,26,14,23,12.80
2013,09,26,14,24,12.80
2013,09,26,14,25,12.70
2013,09,26,14,26,12.60
2013,09,26,14,27,12.60
2013,09,26,14,28,12.60
2013,09,26,14,29,12.60
2013,09,26,14,30,12.70
2013,09,26,14,31,12.60
2013,09,26,14,32,12.60
2013,09,26,14,33,12.50
2013,09,26,14,34,12.40
2013,09,26,14,35,12.40
2013,09,26,14,36,12.30
2013,09,26,14,37,12.30
2013,09,26,14,38,12.30
2013,09,26,14,39,12.50
2013,09,26,14,40,12.50
2013,09,26,14,41,12.60
2013,09,26,14,42,12.60
2013,09,26,14,43,12.60
2013,09,26,14,44,12.60
2013,09,26,14,45,12.60
2013,09,26,14,46,12.60
2013,09,26,14,47,12.60
2013,09,26,14,48,12.60
2013,09,26,14,49,12.60
2013,09,26,14,50,12.70
2013,09,26,14,51,12.70
2013,09,26,14,52,12.70
2013,09,26,14,53,12.70
2013,09,26,14,54,12.70
2013,09,26,14,55,12.80
2013,09,26,14,56,12.80
2013,09,26,14,57,12.80
2013,09,26,14,58,12.80
2013,09,26,14,59,12.80
2013,09,26,15,00,12.80
2013,09,26,15,01,12.80
2013,09,26,15,02,12.80
2013,09,26,15,03,12.80
2013,09,26,15,04,12.80
2013,09,26,15,05,12.70
2013,09,26,15,06,12.70
2013,09,26,15,07,12.70
2013,09,26,15,08,12.70
2013,09,26,15,09,12.80
2013,09,26,15,10,12.80
2013,09,26,15,11,12.90
2013,09,26,15,12,13.00
2013,09,26,15,13,13.10
2013,09,26,15,14,13.10
2013,09,26,15,15,13.10
2013,09,26,15,16,13.10
2013,09,26,15,17,13.10
2013,09,26,15,18,13.00
2013,09,26,15,19,13.00
2013,09,26,15,20,12.90
2013,09,26,15,21,12.80
2013,09,26,15,22,12.80
2013,09,26,15,23,12.80
2013,09,26,15,24,12.70
2013,09,26,15,25,12.70
2013,09,26,15,26,12.70
2013,09,26,15,27,12.70
2013,09,26,15,28,12.60
2013,09,26,15,29,12.60
2013,09,26,15,30,12.50
2013,09,26,15,31,12.50
2013,09,26,15,32,12.50
2013,09,26,15,33,12.50
2013,09,26,15,34,12.50
2013,09,26,15,35,12.50
2013,09,26,15,36,12.50
2013,09,26,15,37,12.60
2013,09,26,15,38,12.60
2013,09,26,15,39,12.70
2013,09,26,15,40,12.70
2013,09,26,15,41,12.70
2013,09,26,15,42,12.70
2013,09,26,15,43,12.60
2013,09,26,15,44,12.60
2013,09,26,15,45,12.60
2013,09,26,15,46,12.50
2013,09,26,15,47,12.50
2013,09,26,15,48,12.40
2013,09,26,15,49,12.40
2013,09,26,15,50,12.30
2013,09,26,15,51,12.30
2013,09,26,15,52,12.30
2013,09,26,15,53,12.30
2013,09,26,15,54,12.30
2013,09,26,15,55,12.40
2013,09,26,15,56,12.50
2013,09,26,15,57,12.50
2013,09,26,15,58,12.50
2013,09,26,15,59,12.50
2013,09,26,16,00,12.60
2013,09,26,16,01,12.60
2013,09,26,16,02,12.70
2013,09,26,16,03,12.80
2013,09,26,16,04,12.80
2013,09,26,16,05,12.80
2013,09,26,16,06,12.80
2013,09,26,16,07,12.90
2013,09,26,16,08,12.90
2013,09,26,16,09,12.90
2013,09,26,16,10,12.90
2013,09,26,16,11,12.90
2013,09,26,16,12,12.90
2013,09,26,16,13,12.90
2013,09,26,16,14,13.00
2013,09,26,16,15,13.00
2013,09,26,16,16,13.00
2013,09,26,16,17,13.10
2013,09,26,16,18,13.10
2013,09,26,16,19,13.10
2013,09,26,16,20,13.10
2013,09,26,16,21,13.00
2013,09,26,16,22,13.00
2013,09,26,16,23,13.00
2013,09,26,16,24,13.00
2013,09,26,16,25,13.00
2013,09,26,16,26,13.10
2013,09,26,16,27,13.10
2013,09,26,16,28,13.10
2013,09,26,16,29,13.10
2013,09,26,16,30,13.10
2013,09,26,16,31,13.10
2013,09,26,16,32,13.10
2013,09,26,16,33,13.10
2013,09,26,16,34,13.10
2013,09,26,16,35,13.00
2013,09,26,16,36,13.00
2013,09,26,16,37,13.00
2013,09,26,16,38,13.10
2013,09,26,16,39,13.10
2013,09,26,16,40,13.20
2013,09,26,16,41,13.20
2013,09,26,16,42,13.30
2013,09,26,16,43,13.30
2013,09,26,16,44,13.30
2013,09,26,16,45,13.30
2013,09,26,16,46,13.30
2013,09,26,16,47,13.30
2013,09,26,16,48,13.30
2013,09,26,16,49,13.30
2013,09,26,16,50,13.30
2013,09,26,16,51,13.30
2013,09,26,16,52,13.30
2013,09,26,16,53,13.30
2013,09,26,16,54,13.30
2013,09,26,16,55,13.30
2013,09,26,16,56,13.30
2013,09,26,16,57,13.30
2013,09,26,16,58,13.30
2013,09,26,16,59,13.30
2013,09,26,17,00,13.30
2013,09,26,17,01,13.30
2013,09,26,17,02,13.30
2013,09,26,17,03,13.30
2013,09,26,17,04,13.30
2013,09,26,17,05,13.30
2013,09,26,17,06,13.20
2013,09,26,17,07,13.20
2013,09,26,17,08,13.10
2013,09,26,17,09,13.10
2013,09,26,17,10,13.20
2013,09,26,17,11,13.20
2013,09,26,17,12,13.20
2013,09,26,17,13,13.20
2013,09,26,17,14,13.20
2013,09,26,17,15,13.20
2013,09,26,17,16,13.10
2013,09,26,17,17,13.10
2013,09,26,17,18,13.10
2013,09,26,17,19,13.10
2013,09,26,17,20,13.10
2013,09,26,17,21,13.20
2013,09,26,17,22,13.30
2013,09,26,17,23,13.30
2013,09,26,17,24,13.40
2013,09,26,17,25,13.40
2013,09,26,17,26,13.50
2013,09,26,17,27,13.50
2013,09,26,17,28,13.50
2013,09,26,17,29,13.60
2013,09,26,17,30,13.60
2013,09,26,17,31,13.70
2013,09,26,17,32,13.70
2013,09,26,17,33,13.70
2013,09,26,17,34,13.70
2013,09,26,17,35,13.80
2013,09,26,17,36,13.80
2013,09,26,17,37,13.80
2013,09,26,17,38,13.90
2013,09,26,17,39,13.90
2013,09,26,17,40,13.90
2013,09,26,17,41,13.90
2013,09,26,17,42,13.90
2013,09,26,17,43,13.90